Overview Statistics Trail Chart Weather Telemetry Raw packets
 

This is the latest recevied weather packets stored in our database for station/object KD5YCY. If no packets are shown the sender has not sent any weather packets the latest 10 day(s).

<< 561 562 563 564 565 566 >>
Time Temp. Humidity Pressure Rain* Wind** Luminosity Snow
1787720113 28.33° C 46% 946.3 hPa 0.76 mm - - -
1787720053 27.78° C 47% 946.3 hPa 0.76 mm - - -
1787719989 27.78° C 47% 946.4 hPa 1.02 mm - - -
1787719929 27.22° C 49% 946.3 hPa 2.03 mm - - -
1787719869 27.22° C 50% 946.4 hPa 2.03 mm - - -
1787719809 26.67° C 51% 946.4 hPa 3.05 mm - - -
1787719749 26.67° C 55% 946.3 hPa 3.05 mm - - -
1787719689 26.67° C 53% 946.3 hPa 3.3 mm - - -
1787719629 26.11° C 55% 946.3 hPa 4.57 mm - - -
1787719569 26.11° C 54% 946.3 hPa 6.35 mm - - -
1787719509 25.56° C 56% 946.3 hPa 7.11 mm - - -
1787719449 25.56° C 57% 946.3 hPa 7.62 mm - - -
1787719389 25.56° C 57% 946.3 hPa 7.87 mm - - -
1787719329 25° C 59% 946.3 hPa 8.64 mm - - -
1787719269 25° C 61% 946.3 hPa 8.64 mm - - -
1787719209 24.44° C 63% 946.3 hPa 10.16 mm - - -
1787719149 24.44° C 63% 946.3 hPa 11.68 mm - - -
1787719090 23.89° C 62% 946.3 hPa 11.68 mm - - -
1787719030 23.89° C 67% 946.3 hPa 11.94 mm - - -
1787718969 23.33° C 67% 946.3 hPa 13.72 mm - - -
1787718909 23.33° C 70% 946.2 hPa 14.22 mm - - -
1787718869 22.78° C 70% 946.2 hPa 14.73 mm - - -
1787718785 22.78° C 70% 946.2 hPa 14.73 mm - - -
1787718725 22.22° C 77% 946.3 hPa 14.73 mm - - -
1787718665 22.22° C 76% 946.2 hPa 15.24 mm - - -

* Rain latest hour (hover to see other rain measurements)
** Current wind speed in m/s (hover to see current wind gust speed)